Location: Caltech
(34.1382°N, 118.1253°W)
Time: 01:40:54
(UTC-07:00)

Uosat F - Visible Passes

Search period start: 29 July 2014 00:00
Search period end: 08 August 2014 00:00
Orbit: 752 x 762 km, 98.7° (Epoch: 27 July)

Date Brightness Start Highest point End Pass type
(mag) Time Alt. Az. Time Alt. Az. Time Alt. Az.
29 Jul 13.9 03:50:15 10° ENE 03:51:27 11° E 03:52:40 10° ESE visible
29 Jul 11.1 05:25:39 10° N 05:30:38 66° WNW 05:35:34 10° SSW visible
30 Jul 12.0 04:46:42 10° NNE 04:51:33 47° E 04:56:20 10° S visible
31 Jul 13.5 04:08:48 10° NE 04:12:15 19° E 04:15:40 10° SE visible
01 Aug 11.2 05:07:08 10° NNE 05:12:10 79° ESE 05:17:09 10° S visible
02 Aug 12.8 04:28:36 10° NE 04:32:59 30° E 04:37:19 10° SSE visible
03 Aug 13.8 03:52:03 10° ENE 03:53:35 11° E 03:55:06 10° ESE visible
03 Aug 11.1 05:27:46 10° N 05:32:44 64° WNW 05:37:39 10° SSW visible
04 Aug 11.9 04:48:48 10° NNE 04:53:39 49° E 04:58:28 10° S visible
05 Aug 13.4 04:10:50 10° NE 04:14:22 19° E 04:17:52 10° SE visible
06 Aug 11.2 05:09:14 10° NNE 05:14:16 82° ESE 05:19:15 10° S visible
07 Aug 12.7 04:30:40 10° NE 04:35:05 31° E 04:39:29 10° SSE visible
